Location: Poughquag
(41.6090°N, 73.6820°W)
Time: 16:33:26
(UTC-04:00)

Envisat - Visible Passes

Search period start: 25 September 2017 00:00
Search period end: 05 October 2017 00:00
Orbit: 764 x 766 km, 98.2° (Epoch: 25 September)

Date Brightness Start Highest point End Pass type
(mag) Time Alt. Az. Time Alt. Az. Time Alt. Az.
25 Sep 3.0 20:21:01 28° SE 20:23:34 56° ENE 20:28:32 10° N visible
25 Sep 5.4 22:01:14 15° WSW 22:02:56 17° W 22:06:12 10° NW visible
26 Sep 4.0 19:44:02 15° ESE 19:47:05 27° ENE 19:51:17 10° N visible
26 Sep 4.3 21:24:15 29° SW 21:25:56 37° W 21:30:38 10° NNW visible
27 Sep 4.8 19:08:35 10° E 19:10:50 13° ENE 19:13:04 10° NNE visible
27 Sep 2.9 20:47:16 41° S 20:49:07 83° WSW 20:54:14 10° NNW visible
28 Sep 3.3 20:10:18 28° SE 20:12:30 45° ENE 20:17:20 10° N visible
28 Sep 5.1 21:50:31 20° WSW 21:51:43 21° W 21:55:35 10° NW visible
29 Sep 4.2 19:33:19 14° ESE 19:36:06 22° ENE 19:39:54 10° NNE visible
29 Sep 3.8 21:13:32 39° SW 21:14:46 47° W 21:19:41 10° NNW visible
30 Sep 2.8 20:36:33 47° SSE 20:38:02 78° ENE 20:43:07 10° N visible
30 Sep 5.7 22:16:47 11° W 22:17:37 12° W 22:19:30 10° WNW visible
01 Oct 3.6 19:59:35 27° ESE 20:01:29 36° ENE 20:06:05 10° N visible
01 Oct 4.7 21:39:48 26° WSW 21:40:32 27° W 21:44:49 10° NW visible
02 Oct 4.5 19:22:37 13° E 19:25:07 18° ENE 19:28:25 10° NNE visible
02 Oct 3.4 21:02:50 53° SW 21:03:38 60° W 21:08:41 10° NNW visible
03 Oct 2.9 20:25:52 49° SE 20:26:57 62° ENE 20:31:58 10° N visible
03 Oct 5.5 22:06:05 15° W 22:06:23 15° W 22:09:21 10° NW visible
04 Oct 3.9 19:48:53 24° E 19:50:27 29° ENE 19:54:47 10° N visible
04 Oct 4.4 21:29:06 34° WSW 21:29:21 34° W 21:33:58 10° NNW visible
